GFSGL_700_rhum_084.txt.gz
RH
66 73 78 79 79 79 78 75 72 67 60 52 55 66 68 80 91 92 90 90 92 99 98 99 95 92 74 66 68 62 62 49 43 35 34 37 39 38 40 44 47 48 50
38 40 43 48 53 55 53 46 37 31 34 37 49 68 73 76 86 93 94 96 98 98 94 90 92 84 64 54 49 46 44 41 37 37 37 39 38 40 42 43 48 52 58
39 38 37 36 33 33 32 30 29 29 29 32 43 55 62 71 80 82 93 96 93 90 89 76 84 67 49 44 45 44 39 39 40 41 41 42 42 41 43 45 52 59 62
45 43 38 33 30 29 30 30 28 29 29 29 31 33 41 46 68 82 82 84 86 86 84 83 66 44 40 41 41 41 44 46 45 45 44 41 42 42 44 51 62 67 65
44 42 39 35 32 32 30 28 30 31 30 30 30 33 34 34 41 62 76 82 88 88 85 59 48 49 45 42 39 40 41 41 41 41 40 40 39 41 48 62 67 67 63
46 42 39 35 34 35 36 36 33 32 31 32 35 37 41 41 40 44 46 52 61 58 53 56 54 46 42 40 43 44 42 40 40 41 37 34 38 52 67 69 64 52 46
45 42 40 39 36 33 32 32 35 37 35 34 36 43 47 46 44 43 45 50 55 55 53 55 49 46 44 43 44 44 42 40 42 46 53 53 60 69 69 59 54 60 62
45 46 46 44 41 39 37 36 40 40 43 41 46 53 51 49 47 50 50 53 67 66 59 52 50 46 47 51 50 46 44 46 48 53 58 63 68 63 56 44 24 12 13
54 54 54 51 45 40 34 34 36 45 54 59 62 64 63 60 62 64 67 69 67 62 55 53 51 49 52 55 55 53 51 48 50 51 63 68 60 40 16 13 19 28 35
38 35 33 32 34 37 39 33 34 37 53 67 66 76 74 75 73 76 78 75 70 64 62 59 57 56 58 63 62 59 52 52 52 57 62 51 22 16 35 42 38 40 41
47 46 43 38 36 34 32 32 31 36 42 63 74 78 85 87 85 83 82 80 76 72 66 64 65 63 69 70 67 63 58 60 55 58 34 26 41 42 43 50 45 54 55
24 23 25 36 42 44 42 39 34 36 44 52 80 82 93 98 96 90 84 83 86 76 72 72 70 72 76 75 73 66 71 65 56 44 37 38 48 48 46 50 49 47 44
21 21 20 19 22 47 57 53 42 38 45 76 87 97 94 96 99 98 91 86 87 88 84 80 83 82 80 80 77 72 83 69 50 24 27 38 58 59 59 49 39 47 62
19 20 22 22 22 24 30 65 59 54 58 83 100 100 100 98 98 99 98 97 97 95 87 86 90 88 86 88 81 81 90 71 31 51 55 46 41 39 38 38 38 39 41
29 25 21 17 19 21 22 23 66 70 96 98 99 100 99 99 99 100 100 100 100 97 93 89 89 90 96 94 91 90 92 70 30 71 46 40 43 41 39 41 51 53 53
10 8 9 14 20 20 19 19 23 60 75 88 100 96 99 99 98 98 94 95 99 99 96 89 94 99 90 92 98 100 98 66 30 59 57 37 39 41 47 52 47 59 70
10 9 12 16 11 6 13 17 18 28 77 73 93 97 99 98 98 99 98 98 100 99 95 95 87 85 93 89 98 100 96 46 58 26 31 37 40 49 77 67 52 54 69
13 13 16 21 24 18 10 7 12 19 40 74 81 99 96 98 98 98 98 98 96 92 82 86 85 83 89 96 99 100 93 84 53 28 34 37 48 75 71 51 70 81 93
18 17 19 20 26 38 24 16 9 11 22 52 86 94 97 97 98 97 97 95 96 92 72 80 91 95 98 98 97 99 96 94 47 50 39 41 55 50 55 72 91 95 96
26 36 40 37 33 44 48 26 18 13 13 36 84 90 96 97 97 97 96 94 96 97 83 94 95 100 98 94 95 98 90 92 34 28 36 37 38 54 88 94 96 96 95
32 40 50 44 44 52 62 42 27 22 17 22 87 100 97 96 96 97 96 96 96 97 95 97 95 99 96 92 95 96 90 80 56 32 41 69 93 95 95 98 97 95 96
53 58 55 54 62 72 78 67 41 40 26 22 77 98 96 95 96 96 96 96 96 97 98 99 93 96 98 96 96 96 95 81 92 95 95 95 94 96 96 96 97 98 97
70 71 69 74 78 82 85 85 77 67 48 35 66 97 96 96 95 96 96 96 97 96 100 100 95 94 99 96 96 97 97 97 96 96 96 96 96 96 97 96 97 97 96
84 84 85 88 88 88 92 96 93 85 76 63 68 98 97 96 96 96 96 96 96 97 100 98 95 96 96 93 94 96 96 96 96 96 96 96 97 97 97 97 91 90 97
93 92 95 94 97 97 99 98 96 96 96 97 91 97 96 96 96 96 97 96 96 99 99 98 97 97 95 95 96 96 96 95 96 98 99 98 99 99 100 100 95 98 99
96 99 98 97 99 99 99 99 97 98 98 100 97 93 97 97 95 98 98 98 96 99 96 96 99 97 97 97 96 96 97 94 93 96 97 97 98 100 100 99 100 99 97

GFSGL_700_rhum_087.txt.gz
RH
72 75 76 80 85 86 90 88 83 83 84 78 70 70 59 55 64 73 90 92 84 92 83 81 86 91 97 91 87 78 59 56 46 40 35 34 34 35 37 37 37 38 38
42 46 50 54 60 66 72 72 70 69 66 64 54 44 45 58 67 72 85 94 90 86 89 90 90 88 85 84 80 66 48 44 39 36 31 33 36 39 41 41 42 44 44
44 41 40 39 38 37 37 36 36 34 33 32 30 31 39 52 66 78 82 88 93 93 91 91 87 86 88 82 82 46 43 44 38 35 35 38 43 45 42 38 40 41 43
50 49 48 46 44 39 34 33 33 32 31 31 32 32 32 38 49 60 75 81 84 89 90 90 90 87 86 89 59 45 40 37 37 37 38 38 40 40 39 39 38 42 51
52 50 47 43 40 39 38 35 35 33 31 30 29 29 29 31 36 45 50 66 82 84 91 92 92 91 90 61 47 44 40 37 38 41 42 41 42 40 38 36 38 44 58
54 53 51 47 43 39 36 34 35 37 38 37 33 32 30 30 36 42 44 45 60 89 92 92 89 82 60 48 46 43 40 41 44 43 41 40 43 47 51 51 50 60 63
58 54 50 46 44 40 37 35 32 30 32 36 39 38 34 37 41 43 46 48 49 58 66 72 68 57 52 53 45 44 42 47 46 44 43 46 44 51 53 60 62 62 55
50 49 48 46 46 46 45 41 37 35 32 30 32 37 40 39 48 52 53 50 48 52 59 60 59 62 59 50 47 46 47 49 48 48 45 41 47 52 64 66 60 52 37
43 42 42 43 44 45 48 49 47 40 34 34 34 37 42 47 56 59 59 57 54 58 65 72 73 64 56 53 52 51 55 55 55 54 50 46 50 60 64 55 31 16 13
40 37 35 34 35 34 32 31 32 35 40 35 32 37 44 54 61 63 64 64 68 78 88 86 72 64 59 57 54 55 58 61 60 56 51 52 56 58 45 21 18 28 33
51 49 47 46 43 42 42 42 39 38 34 36 34 37 49 65 69 77 82 81 84 86 88 82 74 69 66 64 60 61 64 67 65 59 61 54 53 33 24 41 53 49 44
48 38 28 23 21 18 18 23 39 46 46 44 38 36 49 72 83 86 91 95 97 96 93 87 81 79 74 69 66 66 72 73 70 64 66 55 41 43 46 47 42 45 48
59 56 47 29 22 20 20 20 22 34 60 56 50 52 54 94 100 100 100 100 99 100 99 92 93 86 80 75 73 78 80 80 76 69 72 51 36 38 53 53 53 54 50
34 32 30 28 25 21 18 20 22 22 25 63 68 66 81 97 100 99 98 100 100 98 98 96 94 96 90 83 82 85 88 89 80 77 73 36 34 34 56 58 53 45 39
36 27 22 21 23 24 28 28 20 20 21 22 63 99 99 97 100 99 98 98 98 99 100 98 97 94 95 89 91 97 100 96 87 86 80 32 59 47 44 40 39 38 38
8 8 8 9 10 10 9 7 10 23 20 20 25 75 93 100 100 98 98 100 98 100 92 83 89 93 94 100 99 100 100 100 100 98 84 32 62 41 42 43 40 40 47
16 14 13 13 14 15 15 14 10 7 10 17 20 32 74 84 100 100 98 98 98 97 88 87 85 89 95 99 100 99 100 100 100 96 77 35 70 55 38 40 43 55 64
20 19 18 18 18 18 18 18 20 12 7 7 12 20 49 87 96 97 100 98 96 90 78 86 86 91 98 97 98 97 98 100 99 98 67 25 35 36 38 42 58 72 65
28 27 26 25 23 22 21 19 29 30 17 11 7 10 19 88 100 96 97 94 96 97 88 91 96 97 97 99 92 86 92 100 97 97 43 76 38 35 39 50 70 69 60
39 39 40 38 34 27 25 26 32 39 39 22 18 10 12 36 96 96 96 96 98 96 95 91 97 98 95 96 89 96 100 98 97 95 79 90 35 34 39 57 53 52 67
51 56 57 53 43 41 43 42 42 48 58 36 27 21 14 17 74 94 96 96 96 98 97 96 96 97 100 99 95 100 100 97 98 95 96 60 78 82 52 41 40 70 95
69 80 76 68 53 55 58 55 59 65 73 54 36 32 24 16 71 95 96 96 97 98 97 96 96 96 97 97 99 98 98 98 96 93 95 83 33 32 42 54 83 95 96
98 97 98 89 68 78 75 73 77 79 81 75 56 56 33 22 57 94 96 96 96 96 96 96 96 96 96 97 99 98 98 98 93 91 92 95 67 56 76 92 96 96 97
99 100 99 79 81 89 87 84 84 85 84 84 73 66 45 36 69 92 95 96 96 96 96 96 96 96 97 97 98 97 98 96 96 96 95 95 95 95 96 96 96 97 98
99 93 80 93 92 93 90 88 89 91 88 88 80 74 60 58 92 96 96 96 96 96 96 96 96 97 97 97 97 96 96 96 97 97 96 96 96 96 96 96 97 98 97
80 93 100 99 98 97 96 94 94 94 92 92 90 88 83 93 100 98 96 96 96 96 96 96 96 96 97 97 97 97 96 96 96 96 96 96 96 96 98 98 98 100 100

GFSGL_700_rhum_090.txt.gz
RH
88 89 87 86 88 89 84 87 85 83 80 80 85 91 86 78 70 66 78 90 92 98 91 90 99 93 90 94 93 93 93 87 75 59 48 40 35 33 32 32 33 37 38
53 54 57 62 67 73 77 79 81 85 82 78 77 74 70 66 64 61 59 66 78 96 87 87 84 85 87 97 100 89 82 76 63 44 40 42 35 33 34 38 41 42 38
47 46 45 44 42 39 37 37 38 40 41 41 41 42 40 42 48 54 58 59 72 88 92 89 91 93 95 92 88 85 76 76 51 40 35 35 37 35 36 36 38 39 40
52 52 50 48 47 44 41 39 36 34 33 33 34 34 35 36 39 50 52 65 74 84 94 96 97 97 99 92 89 87 89 82 46 41 37 34 34 37 39 38 38 38 37
59 56 53 48 44 42 39 38 37 37 36 34 33 34 34 34 36 37 39 53 66 78 87 92 97 100 99 97 95 94 88 55 46 41 37 36 42 42 39 39 39 41 45
60 56 54 52 51 50 48 46 41 38 36 35 36 38 34 34 36 37 38 40 46 52 64 78 90 93 99 98 93 93 66 51 46 40 40 44 43 41 41 42 41 46 46
60 54 50 48 46 45 44 44 43 41 39 36 32 33 37 39 39 40 42 43 45 48 49 59 78 89 96 100 91 69 56 52 44 44 47 48 46 44 43 40 43 49 56
49 46 45 43 43 44 44 42 41 39 39 41 40 37 33 34 40 44 44 48 48 50 51 57 70 89 88 79 70 61 57 49 47 48 51 52 52 49 46 41 41 51 58
50 48 44 41 39 37 34 33 36 40 44 48 48 42 36 36 43 50 51 50 56 59 59 59 61 69 71 68 68 65 55 53 51 55 57 56 55 52 46 44 52 55 48
43 40 38 37 39 39 41 41 37 35 35 33 35 40 43 37 38 53 66 61 66 68 63 63 64 72 76 73 74 61 58 60 59 58 61 58 55 53 53 52 51 37 19
56 51 48 49 50 50 46 36 28 27 30 40 43 39 38 40 40 51 68 72 81 83 81 79 79 85 85 80 70 65 64 62 63 65 65 61 59 60 53 45 29 27 35
52 58 61 61 58 56 51 38 27 23 21 20 25 49 48 46 44 51 71 92 100 100 99 99 99 99 95 83 73 71 69 67 64 71 71 69 67 65 53 33 40 42 48
49 47 46 46 43 37 35 38 38 27 21 22 22 22 50 59 55 57 79 100 99 100 99 100 99 98 97 91 80 77 74 72 71 76 79 78 72 71 52 38 45 46 44
15 19 20 25 31 37 41 41 40 38 31 22 18 22 22 47 73 69 91 100 100 93 98 98 98 98 100 99 87 81 79 79 80 85 86 86 79 76 47 33 50 56 58
8 9 10 10 9 8 8 7 7 8 11 22 31 23 20 24 70 100 100 100 99 100 98 98 100 99 100 96 90 86 88 84 85 89 92 95 84 80 36 30 44 59 51
11 12 12 12 13 16 15 13 14 14 13 11 10 16 24 21 28 94 98 99 98 100 99 98 98 100 93 100 100 92 88 89 91 94 96 97 95 88 45 49 46 43 40
12 15 20 24 24 23 20 19 18 20 21 16 14 11 9 17 20 28 90 96 99 98 97 100 100 100 93 94 96 93 100 100 100 98 92 96 97 94 49 53 42 42 42
19 23 32 35 34 32 30 27 25 23 22 21 14 14 12 10 11 18 28 95 97 97 96 94 98 96 100 93 96 100 100 98 100 100 99 100 97 97 49 58 44 41 42
48 33 40 47 41 40 35 34 36 33 26 22 21 15 25 19 12 11 17 38 96 96 96 93 97 96 98 99 96 98 99 98 97 100 100 100 99 99 72 59 74 42 44
84 62 55 60 59 56 53 52 50 40 30 24 24 29 26 33 22 13 13 18 70 95 96 97 95 99 98 98 97 96 98 97 95 93 95 100 100 98 55 52 59 42 48
98 97 87 80 84 88 81 75 62 49 41 35 33 38 42 39 29 19 13 17 40 86 96 96 98 98 97 97 96 96 97 94 88 91 97 98 98 89 87 94 47 41 54
99 99 99 100 100 100 97 96 71 58 60 57 51 55 59 52 42 31 18 15 32 64 96 97 96 96 96 97 96 96 98 98 98 96 98 99 97 92 95 81 50 44 52
100 100 100 100 100 99 99 99 80 84 80 74 69 69 66 63 53 43 25 20 71 87 85 95 96 96 96 96 96 96 96 97 96 96 97 99 95 97 94 94 93 92 82
100 100 100 100 100 100 94 91 92 87 84 75 70 73 69 62 62 56 34 25 77 100 92 95 96 96 96 96 95 96 96 96 96 97 98 93 93 96 94 89 77 92 94
89 87 86 88 93 99 99 95 95 91 84 81 79 79 72 70 71 58 35 40 76 98 91 94 96 96 96 96 96 96 96 96 96 96 96 95 94 95 96 96 96 96 95
88 94 99 100 100 100 100 99 93 90 90 90 92 88 83 83 77 58 45 90 94 97 88 95 96 96 96 96 96 96 96 96 95 94 95 95 95 95 95 96 96 96 96

GFSGL_700_rhum_096.txt.gz
RH
100 98 99 100 99 99 100 100 100 99 98 99 98 99 99 99 100 99 100 100 100 100 100 99 98 99 100 99 98 92 98 99 99 97 99 98 89 84 78 63 45 38 34
58 56 54 71 90 90 88 92 97 99 97 98 99 100 99 96 98 99 99 100 99 98 99 100 98 99 100 100 98 98 100 97 86 100 100 98 96 86 78 60 41 37 35
58 56 54 53 50 48 47 44 42 42 43 46 52 58 65 74 81 85 87 90 93 92 91 86 91 100 100 98 100 100 100 99 100 100 99 100 95 84 75 61 40 36 36
66 64 64 61 58 56 55 53 50 48 46 45 43 38 32 34 38 42 47 54 61 65 68 76 80 77 97 98 100 97 100 100 95 95 98 99 97 86 78 62 40 38 35
58 56 55 55 54 52 52 50 48 48 48 47 46 44 42 42 41 39 39 38 36 37 39 49 58 65 71 89 92 100 98 89 90 93 95 84 87 89 85 63 46 38 38
57 53 49 48 47 45 44 44 44 44 46 46 47 47 45 44 42 39 39 39 38 37 35 37 42 54 66 72 93 100 95 92 95 95 91 93 98 95 85 49 43 42 42
35 33 31 28 25 26 26 26 28 31 33 35 38 40 41 44 45 45 43 39 36 38 39 37 37 42 60 69 81 98 92 96 100 99 100 99 100 98 78 51 45 44 46
18 17 19 18 18 16 15 14 15 15 18 20 24 27 30 34 38 40 42 42 40 37 36 39 39 40 44 73 82 97 98 100 98 97 98 98 100 99 71 53 47 49 51
12 13 13 13 12 10 9 8 6 6 7 10 15 17 24 28 30 32 40 44 45 41 39 38 43 43 46 51 94 99 100 99 100 98 100 93 100 89 64 52 51 55 54
8 6 5 5 4 4 4 4 6 10 13 14 23 34 35 36 38 34 35 39 43 50 46 41 48 55 55 68 90 88 89 96 100 97 97 100 93 78 61 56 58 60 56
4 4 4 5 10 15 17 16 14 22 35 47 51 53 54 52 47 39 32 33 45 49 53 53 56 78 88 82 82 92 99 100 99 100 91 85 84 70 62 64 66 63 58
4 4 5 4 4 4 4 4 5 7 10 17 29 37 45 48 50 52 33 25 25 55 55 56 78 100 100 100 99 100 100 98 92 91 94 91 80 68 70 68 70 66 59
10 10 11 10 8 7 6 5 5 5 5 5 6 5 7 19 40 45 43 37 24 23 56 71 93 100 99 99 100 100 100 100 100 96 96 91 77 76 72 71 72 70 64
20 22 22 20 17 14 14 14 12 10 9 9 8 7 7 8 9 22 40 34 29 22 24 85 100 99 98 95 100 99 97 100 100 100 100 93 83 79 76 75 78 76 70
21 27 34 39 35 28 27 24 22 26 33 22 16 14 11 9 10 10 10 23 31 28 29 69 97 90 96 94 96 99 94 100 97 99 98 94 89 84 82 79 82 81 77
17 24 36 52 63 56 46 46 36 39 56 55 46 34 24 19 19 18 16 13 16 23 27 38 93 95 74 99 97 100 98 98 99 99 98 96 96 95 95 88 88 89 87
16 24 34 44 61 80 76 72 61 54 73 81 67 51 40 29 25 23 22 18 14 14 20 27 76 95 95 85 94 96 97 99 98 99 98 98 98 98 96 89 91 93 93
22 31 40 50 72 86 93 93 94 73 67 69 85 72 52 43 36 33 27 22 18 14 12 22 39 65 94 96 99 97 97 96 97 98 98 98 97 98 98 96 98 97 97
44 52 59 68 80 90 94 93 97 99 97 87 68 70 80 64 50 40 30 24 19 16 14 12 16 31 69 87 97 99 90 96 96 96 96 98 100 99 98 98 98 98 96
50 61 67 72 78 85 92 97 99 99 98 98 95 92 93 79 55 45 36 28 23 21 19 15 12 16 60 86 87 97 94 95 97 97 97 97 96 97 96 96 98 97 98
40 47 64 75 82 85 89 94 95 90 94 93 94 96 98 80 58 50 42 38 33 32 32 22 14 12 23 94 86 96 95 95 97 96 95 96 96 99 100 99 99 98 98
66 70 65 59 70 82 91 94 98 98 95 92 88 88 89 82 77 68 56 49 49 48 44 28 18 13 17 87 100 95 96 96 95 96 96 96 96 97 97 96 96 97 96
73 79 86 92 94 92 86 86 88 88 89 92 93 93 92 89 85 78 66 62 55 56 51 34 22 15 15 82 99 92 95 96 100 95 96 99 98 96 96 96 96 96 96
78 81 85 90 92 96 100 100 98 98 98 93 88 87 87 86 81 75 69 64 61 61 55 39 27 16 22 68 97 99 90 94 99 94 96 99 97 94 96 95 96 96 96
85 89 94 95 93 96 98 100 100 99 97 96 93 89 85 82 78 75 70 67 65 62 53 41 28 17 26 41 90 99 91 98 97 99 97 97 97 96 95 95 96 96 96
90 94 97 98 98 97 97 97 97 97 98 100 98 94 91 88 88 88 86 76 67 60 50 39 27 19 56 92 96 94 89 96 96 96 100 100 96 94 94 95 96 96 96

GFSGL_700_rhum_099.txt.gz
RH
100 99 100 100 100 100 99 99 99 100 99 99 99 99 100 100 100 98 100 100 100 100 100 100 99 99 99 99 98 98 100 100 99 100 100 100 100 99 100 98 86 77 65
97 93 88 86 95 99 98 86 80 88 88 100 100 100 100 100 99 98 99 99 99 100 100 100 100 100 99 99 100 99 99 99 100 100 100 99 99 100 99 98 89 80 68
74 65 63 62 54 51 50 45 47 44 43 44 45 50 56 67 82 88 91 95 98 94 98 98 99 99 100 100 100 100 99 96 87 89 93 85 98 100 100 99 90 78 70
72 68 64 64 58 57 53 51 52 49 50 50 46 46 46 45 43 42 43 46 56 74 85 92 90 91 91 90 94 99 100 100 100 99 100 99 97 99 100 97 86 81 72
64 61 60 55 52 51 51 50 48 49 48 47 46 47 46 45 46 45 43 42 41 40 42 44 51 61 74 79 83 91 100 99 100 100 100 100 100 89 80 93 88 78 67
55 45 40 35 31 30 29 29 30 32 34 35 37 39 41 44 47 47 44 44 43 41 40 38 38 40 44 54 62 72 79 86 94 100 100 99 100 94 100 100 98 88 72
31 28 23 20 17 14 12 12 11 12 12 13 14 18 22 27 30 34 39 42 45 44 43 41 40 39 38 42 53 61 72 82 85 90 99 100 100 100 100 99 100 91 72
13 11 9 8 7 6 6 7 7 7 7 6 7 8 10 16 19 21 26 30 33 39 42 44 43 39 41 41 39 46 57 92 84 100 99 100 100 99 99 99 99 85 64
7 6 4 4 3 3 3 3 3 3 3 4 5 6 6 9 16 22 26 29 33 34 35 42 43 44 40 42 46 43 54 69 99 100 96 99 99 97 93 99 89 93 62
4 3 3 3 3 4 5 5 5 4 3 3 4 8 12 19 29 42 49 46 40 39 38 40 44 49 47 42 44 54 61 91 99 99 94 99 97 99 100 98 93 79 58
4 5 7 9 10 12 13 14 13 12 9 6 5 4 4 7 12 19 29 40 49 54 50 39 37 52 58 57 73 64 73 100 85 100 99 98 98 98 96 88 87 73 59
7 7 7 7 7 7 8 14 20 20 18 13 9 7 5 5 5 5 7 16 34 42 47 55 40 31 59 80 100 100 100 100 100 99 97 95 94 98 95 96 87 70 62
5 4 4 4 4 4 5 8 16 27 30 24 16 10 8 8 9 8 9 9 14 42 43 45 53 39 26 55 89 99 98 99 99 100 100 100 99 99 100 96 82 68 68
4 4 5 6 6 7 6 8 13 24 40 35 27 19 14 14 16 15 13 11 11 13 34 35 32 29 25 34 67 81 88 98 97 99 100 100 100 98 95 91 77 72 70
6 8 10 11 11 12 12 12 16 34 55 52 44 36 31 26 31 31 27 22 16 14 14 22 28 32 39 67 67 76 76 95 80 91 97 99 99 96 96 89 80 78 75
14 16 17 16 15 19 22 21 29 44 64 73 70 64 60 63 52 43 34 30 28 23 18 16 18 22 99 100 97 84 77 92 88 98 90 98 96 100 98 92 86 83 82
22 25 24 21 20 25 35 42 39 49 74 90 90 84 93 81 67 51 41 36 30 27 25 19 17 20 46 100 98 100 98 100 96 97 97 98 97 98 98 96 97 97 95
35 36 35 32 29 33 46 50 60 66 68 78 95 99 100 100 83 59 44 41 34 34 29 24 18 16 17 73 98 96 98 100 98 97 97 97 97 97 97 97 98 97 97
42 46 49 50 52 46 46 57 66 72 79 86 88 88 97 97 93 84 69 59 47 40 33 27 22 18 15 18 85 97 96 97 97 94 95 96 96 96 96 97 96 97 96
49 52 53 55 62 70 66 56 71 78 86 90 87 91 88 96 94 99 92 72 54 44 36 29 24 27 20 16 19 97 96 97 96 92 90 95 96 97 95 96 96 96 97
52 55 59 64 72 78 83 87 77 75 82 86 87 93 94 95 90 86 81 69 56 50 44 37 28 30 25 18 17 78 99 94 97 97 100 95 95 95 96 96 96 96 97
59 63 70 75 78 80 86 92 93 95 94 89 87 89 96 98 99 96 83 70 64 58 47 43 33 35 30 22 16 59 98 94 96 96 96 94 96 96 96 96 96 96 100
67 74 78 82 84 85 88 93 95 96 99 100 98 97 97 94 90 85 82 78 72 61 52 51 44 42 34 21 17 37 94 99 97 97 98 98 96 97 97 96 96 96 99
75 78 83 86 89 91 92 92 94 97 100 100 100 99 95 91 87 82 78 75 68 63 54 54 51 44 35 22 23 64 96 100 96 96 96 96 96 98 96 95 98 98 97
78 81 87 88 92 94 94 94 95 97 99 100 99 97 95 93 91 89 82 73 66 59 56 57 53 45 37 22 27 73 96 96 93 97 96 96 97 98 96 97 95 96 97
81 84 85 90 94 97 97 94 94 96 98 99 98 98 96 96 96 95 90 82 72 65 62 60 52 42 36 20 29 57 96 96 100 100 98 96 98 97 91 92 95 99 98

GFSGL_700_rhum_102.txt.gz
RH
100 99 98 100 99 100 100 99 100 100 100 100 99 100 100 100 99 100 100 100 99 100 100 99 98 100 98 99 99 100 99 99 97 97 100 94 100 100 100 100 100 99 99
100 100 99 98 98 98 100 100 98 76 78 90 87 89 97 100 100 100 100 100 99 98 99 100 100 99 98 100 100 99 100 100 100 99 99 100 100 100 100 100 100 99 98
98 96 94 90 80 74 80 66 66 64 56 49 46 46 48 47 48 64 89 98 99 98 100 98 98 99 100 100 100 100 100 99 100 100 100 100 100 100 100 99 100 99 100
89 81 73 67 63 62 58 55 55 53 50 50 51 49 48 49 47 47 47 45 43 51 73 90 92 99 100 100 99 100 99 100 100 100 100 99 100 99 100 100 100 100 100
67 61 55 50 45 40 36 33 32 32 32 32 33 35 37 40 42 43 45 46 46 45 43 43 44 60 87 94 96 94 95 97 100 98 99 99 99 100 99 99 99 100 99
31 25 21 18 16 14 12 11 11 11 11 12 12 12 13 14 17 22 27 34 40 44 44 45 44 43 42 40 44 52 60 70 86 99 99 99 100 99 99 100 100 99 99
17 14 11 9 7 6 5 4 4 4 4 4 4 4 5 5 6 8 10 12 17 26 32 37 42 46 46 42 42 40 40 43 58 98 97 100 95 87 97 97 99 99 99
9 7 5 4 3 3 3 2 2 2 2 2 2 2 2 2 3 3 5 6 8 11 14 22 31 36 43 46 45 42 42 44 46 68 98 88 90 99 100 99 99 99 100
4 3 3 3 3 3 3 3 3 3 3 3 3 3 4 3 3 3 3 3 5 8 12 21 27 31 35 43 48 47 43 41 46 46 56 85 92 83 100 100 96 99 100
3 3 4 4 5 5 4 4 4 3 3 3 3 4 5 6 7 7 6 4 4 4 6 12 25 33 36 38 40 53 51 45 43 52 58 62 68 99 86 99 100 98 99
4 5 5 5 4 4 4 4 5 6 6 6 6 5 6 10 13 14 13 11 8 6 5 4 5 15 36 48 42 40 51 63 66 68 90 94 100 99 88 99 98 99 99
5 5 4 4 5 7 9 11 12 13 12 12 10 9 6 8 16 20 20 15 11 9 7 6 5 9 21 36 50 45 40 58 100 100 100 100 100 100 97 100 96 98 99
5 4 5 7 8 10 13 16 18 18 16 15 14 12 11 17 30 33 27 21 17 14 11 9 7 7 31 45 51 50 37 61 86 98 100 97 100 88 99 99 100 91 86
5 6 6 8 12 16 22 24 24 21 19 20 20 20 18 28 49 47 35 32 34 28 22 16 12 10 15 41 33 28 68 42 74 82 94 98 98 98 99 91 82 90 99
6 7 10 14 20 25 28 29 28 26 26 26 31 36 34 36 62 63 52 48 47 40 34 27 22 17 13 26 32 38 100 90 72 100 100 92 98 99 98 98 98 99 95
9 12 19 25 28 29 29 29 34 35 35 37 49 61 60 71 84 83 75 70 60 56 43 34 29 27 19 16 26 46 96 99 100 100 100 91 98 97 99 96 96 97 98
16 22 28 31 32 33 34 36 36 39 43 45 56 61 71 77 98 93 92 87 69 63 49 43 38 29 26 20 20 37 96 97 97 98 98 97 98 97 95 99 95 99 98
22 30 36 37 39 40 43 46 49 50 49 49 55 78 82 84 92 90 91 92 84 80 72 60 48 38 29 23 19 21 82 95 96 96 96 96 97 100 96 97 99 100 97
25 30 40 43 46 49 53 57 59 63 68 72 68 72 94 90 92 93 94 99 94 96 89 71 54 42 32 26 20 18 28 97 95 97 97 99 95 94 96 99 96 97 98
27 31 47 50 54 57 64 68 71 76 78 84 88 88 83 88 89 92 92 98 94 95 91 72 58 45 34 27 22 20 22 64 91 96 96 96 96 97 97 96 96 96 96
26 38 54 57 63 70 75 80 86 88 90 90 94 97 98 99 94 91 86 87 90 85 79 68 59 48 36 31 28 27 22 35 81 96 95 96 97 100 94 100 97 96 96
26 51 58 63 70 76 84 89 94 97 97 97 95 95 96 98 98 97 93 90 86 80 74 64 58 49 41 36 38 31 21 36 71 96 96 96 96 98 95 95 96 96 97
36 57 62 70 81 88 90 92 96 100 99 98 98 96 95 94 93 90 87 85 80 76 74 67 58 48 43 43 42 29 20 54 86 96 96 96 96 96 99 97 98 96 96
48 61 68 79 85 87 90 94 98 99 98 98 98 97 96 93 91 88 86 84 79 74 72 64 58 45 42 48 39 25 18 45 70 97 96 96 96 96 100 96 96 96 96
54 62 74 81 83 86 91 97 99 99 97 95 96 97 95 92 92 92 90 88 83 74 67 63 55 45 47 47 38 26 22 51 93 96 96 96 96 96 96 97 96 96 96
56 69 77 77 81 87 96 97 99 99 95 93 94 94 93 92 93 93 94 96 94 86 75 64 54 50 50 44 37 26 35 98 97 96 96 96 96 96 96 96 95 96 96

GFSGL_700_rhum_105.txt.gz
RH
100 95 99 100 100 88 96 100 100 98 99 100 100 99 100 100 100 100 100 99 99 99 99 100 100 100 98 100 99 99 95 98 98 98 97 97 100 100 100 99 100 97 98
100 100 99 99 100 100 100 97 100 99 98 89 73 83 96 97 99 100 99 100 98 99 100 99 98 99 100 100 99 100 99 99 100 98 97 98 99 98 98 100 99 100 100
93 99 98 98 98 96 93 92 94 93 79 67 72 56 51 49 49 47 46 57 69 84 97 99 99 100 100 100 100 100 99 100 99 100 100 100 99 98 99 99 100 100 100
96 95 89 81 64 57 51 46 42 39 38 36 36 37 37 39 41 43 45 47 46 44 45 44 50 74 94 99 99 99 100 100 99 100 100 100 100 98 100 100 100 100 100
47 39 35 29 24 20 16 14 12 11 10 10 9 9 9 10 11 13 17 23 31 39 45 46 44 44 43 43 53 82 98 99 100 99 99 100 100 99 98 99 100 100 100
24 19 16 14 12 9 7 5 4 4 4 4 3 3 3 4 4 4 5 6 7 10 14 24 37 45 47 46 44 45 46 52 68 86 98 93 100 99 100 100 100 100 99
12 9 7 6 4 3 3 3 3 3 2 2 2 2 2 2 2 2 2 2 3 3 4 6 9 18 31 40 46 47 45 47 50 52 76 67 89 98 99 99 97 99 99
7 5 4 3 3 3 3 3 3 2 2 2 2 2 2 2 2 2 2 2 3 3 3 3 3 4 8 15 26 36 46 47 47 51 80 60 89 99 92 99 99 99 99
4 3 3 3 3 3 3 3 3 3 3 3 3 3 3 3 3 3 3 2 2 3 4 5 5 4 4 5 9 18 27 38 49 49 48 53 91 88 100 79 87 90 98
3 3 4 4 4 4 4 4 4 4 5 6 7 9 10 11 11 11 10 9 7 6 4 3 4 6 8 7 4 5 14 28 38 46 51 50 55 55 98 99 100 73 98
4 4 4 4 4 4 5 5 6 7 10 14 16 18 18 16 15 14 12 11 9 8 7 6 5 9 12 11 8 6 4 6 20 38 46 56 76 85 82 91 96 98 99
5 5 5 5 5 6 6 7 10 15 18 19 19 19 19 19 18 18 16 15 13 12 11 10 11 12 16 14 9 6 6 13 15 26 37 45 99 98 100 94 93 98 99
5 5 6 6 7 8 9 12 15 19 21 22 23 24 24 23 22 22 23 24 28 35 35 31 28 23 19 13 9 7 18 35 42 50 47 50 51 98 98 99 98 98 98
6 6 7 8 9 11 17 23 25 26 26 26 28 29 31 31 29 34 38 43 51 58 55 43 33 30 26 18 15 10 13 34 39 78 67 100 57 68 98 98 98 82 98
7 7 9 10 13 21 28 29 30 32 34 36 39 42 43 40 39 39 45 50 58 64 77 56 40 40 36 32 29 18 13 24 51 44 98 100 99 100 89 97 97 97 98
8 9 12 13 18 29 33 34 39 40 41 43 48 55 56 54 53 60 66 68 70 74 80 68 56 46 40 40 33 27 22 26 64 58 94 94 97 98 100 95 98 98 97
10 12 14 16 27 38 42 44 44 43 45 48 52 59 70 69 64 67 77 83 82 83 85 84 83 72 60 49 39 30 24 32 85 98 96 96 95 96 98 100 99 95 97
13 14 18 22 38 44 46 48 50 53 54 54 61 66 74 83 80 74 81 85 78 83 89 91 88 89 76 58 46 36 28 29 66 98 94 97 96 96 96 100 96 95 99
15 16 21 31 45 47 51 55 60 62 62 67 68 71 82 89 95 96 90 84 85 89 85 87 87 87 80 63 50 40 33 27 48 80 96 96 96 96 93 96 97 95 99
17 20 24 42 49 50 56 61 59 59 66 69 70 76 78 83 85 88 94 94 92 90 87 85 86 84 76 63 54 47 36 31 33 94 95 96 96 96 96 95 96 100 96
18 23 30 50 53 56 61 63 64 71 74 71 74 82 86 88 87 93 96 95 92 90 85 81 75 73 70 60 54 49 43 35 34 68 94 84 95 96 98 96 96 94 94
16 23 37 53 56 59 61 64 77 83 84 81 79 83 88 89 92 94 94 94 92 89 84 78 72 70 66 58 52 49 47 38 33 88 86 82 93 96 96 96 96 98 98
16 23 41 58 60 61 65 73 82 86 88 88 88 85 88 91 93 92 92 91 86 82 78 74 71 70 64 54 50 51 48 39 30 57 86 92 95 95 96 95 96 96 96
17 23 44 61 64 62 67 79 83 89 95 95 91 90 90 90 91 91 91 91 90 88 83 76 70 66 57 51 50 54 43 34 26 62 97 96 96 96 96 96 96 97 96
16 22 45 65 64 64 72 82 83 88 93 94 92 92 91 91 90 93 95 95 94 92 87 75 66 60 49 48 55 50 38 26 26 70 96 95 96 96 97 95 96 96 96
17 21 48 65 66 66 75 82 86 87 90 91 93 91 89 89 90 90 91 95 95 94 87 75 65 53 49 51 55 44 30 30 45 84 93 97 96 96 96 95 95 96 97

GFSGL_700_rhum_108.txt.gz
RH
96 93 100 100 100 100 98 97 100 100 100 100 100 100 100 99 100 100 100 100 100 99 100 99 99 100 100 100 100 100 99 100 100 97 100 99 100 100 100 98 100 100 99
93 91 99 100 100 99 100 100 100 100 100 99 99 100 99 99 97 90 99 99 100 100 99 99 99 99 99 100 100 98 100 98 100 100 99 100 100 100 93 97 99 98 100
98 98 98 100 98 98 98 98 95 86 94 96 94 83 73 63 60 58 53 56 49 53 71 90 97 99 100 100 100 100 100 100 100 99 98 99 99 100 100 99 100 100 99
90 96 90 78 70 46 36 34 30 28 26 25 24 21 20 18 18 18 22 27 32 38 42 44 43 44 46 49 77 100 99 100 100 99 99 100 99 98 100 99 98 99 100
34 29 23 17 14 12 11 10 8 7 6 6 5 5 4 4 4 4 4 5 7 9 13 19 29 39 43 45 47 46 55 80 96 92 98 100 100 100 99 100 100 99 100
17 14 10 8 6 5 4 3 3 3 3 3 3 3 3 2 2 2 2 2 2 2 3 3 6 9 16 28 41 46 49 49 49 61 76 94 100 100 98 99 100 98 97
12 9 6 4 3 3 3 3 3 3 3 3 3 3 3 3 2 2 2 2 2 2 2 2 3 3 3 5 10 20 32 43 50 52 51 64 88 69 99 100 97 99 99
7 5 4 3 3 4 4 3 3 3 2 2 2 2 2 2 2 2 2 3 3 3 3 3 3 3 3 3 3 3 6 16 30 42 52 54 62 86 82 96 100 99 99
5 4 4 4 4 4 3 3 3 3 3 3 3 3 3 3 3 3 3 4 4 4 4 5 5 5 5 5 4 3 4 3 5 16 32 43 54 58 84 74 96 100 98
4 4 4 4 4 4 4 4 4 4 4 4 4 5 6 9 12 13 13 12 12 11 11 11 10 10 10 8 7 6 5 5 5 5 5 22 36 48 60 76 100 99 100
5 5 4 4 4 4 4 5 5 5 5 6 8 13 16 16 16 15 14 13 13 13 13 13 13 12 11 11 10 9 8 8 8 8 6 5 8 29 41 60 88 100 99
5 5 4 5 5 5 6 7 7 8 13 18 21 22 22 21 21 22 22 23 23 22 22 21 20 19 17 15 12 12 12 12 10 11 10 8 5 12 28 38 67 86 98
5 6 6 6 6 7 8 8 10 16 22 26 27 25 23 23 25 28 31 31 31 29 28 31 35 32 32 29 26 22 20 19 16 13 10 9 7 8 36 36 57 81 93
7 6 7 8 8 9 10 12 23 30 31 31 30 30 30 30 31 31 34 37 39 40 44 47 49 45 50 50 39 29 24 20 19 14 9 10 9 15 39 85 100 81 87
7 8 9 9 10 11 12 23 33 35 34 34 33 33 35 38 44 47 48 50 52 48 53 58 62 61 57 55 45 34 32 29 25 24 21 22 28 40 57 97 100 100 98
8 9 10 11 11 13 19 34 39 37 36 37 38 39 44 52 58 62 64 66 69 69 70 70 83 71 72 73 66 47 42 41 36 33 30 56 100 59 99 94 95 98 99
10 12 12 12 13 17 32 38 35 34 39 42 43 42 44 43 58 66 66 72 78 77 77 77 76 72 71 73 79 74 56 48 41 35 41 69 95 67 89 96 96 97 98
11 12 13 14 15 27 39 39 36 37 40 48 58 60 56 50 55 70 72 72 75 83 82 75 70 71 71 72 74 77 64 55 47 40 88 82 98 89 85 97 96 97 97
12 13 14 15 17 35 41 37 41 43 57 70 71 70 69 64 68 75 78 78 76 81 86 84 79 76 76 77 76 74 64 56 50 44 87 99 98 99 94 98 89 93 95
12 14 15 16 22 42 46 44 45 61 74 78 80 79 79 75 68 71 77 83 84 85 88 88 83 80 79 76 71 67 61 56 55 46 64 99 88 97 96 99 96 96 93
13 14 15 16 27 47 47 45 58 71 76 79 83 85 85 80 75 76 80 84 85 84 84 82 79 77 75 71 66 62 56 53 58 49 53 100 89 90 93 95 96 100 92
14 16 16 16 28 50 53 54 68 75 76 78 82 81 82 80 77 79 83 86 85 86 84 79 76 75 69 66 62 58 54 53 61 50 52 96 100 97 97 96 95 95 96
16 18 18 17 28 54 56 60 74 79 78 81 81 80 79 78 76 80 86 89 91 91 89 85 77 70 68 62 56 53 47 55 60 46 43 100 96 97 96 98 100 100 97
19 20 19 18 32 56 57 62 78 84 87 84 83 81 78 76 76 79 84 91 97 97 94 85 76 65 59 55 51 47 47 58 50 40 36 93 97 95 92 93 96 96 95
22 22 19 18 35 56 58 64 80 88 90 88 90 89 87 83 81 82 83 87 94 96 96 84 67 57 52 47 45 45 53 49 36 28 39 96 97 96 96 96 95 95 96
22 23 19 18 40 58 57 65 81 88 89 89 92 92 90 91 90 89 86 87 85 84 81 72 61 51 47 46 48 51 47 34 35 56 85 96 99 97 96 96 96 96 95

GFSGL_700_rhum_111.txt.gz
RH
98 98 93 100 98 100 99 98 100 98 100 100 100 100 100 100 100 100 99 98 100 94 100 100 100 100 100 99 100 98 100 100 99 100 100 100 100 99 100 97 88 82 77
97 91 95 86 95 99 100 100 100 97 98 94 97 97 98 99 94 98 100 100 100 100 100 100 99 99 100 100 99 99 100 100 100 100 99 98 99 100 100 100 100 99 97
100 100 100 99 100 100 100 100 100 98 95 85 78 82 93 99 94 79 88 76 71 70 56 71 68 64 86 97 99 100 99 100 100 100 100 100 100 99 100 100 100 100 100
56 54 63 47 42 39 40 36 20 19 20 18 20 16 17 16 15 13 12 12 13 14 17 21 26 33 40 45 47 52 84 93 99 100 99 100 100 100 100 99 100 99 100
29 25 21 18 14 11 9 7 5 4 4 3 3 3 3 3 3 3 3 3 3 3 3 3 4 5 8 10 16 27 41 46 48 66 99 99 100 100 100 100 99 99 99
21 17 12 8 6 4 3 3 3 3 4 3 3 3 3 3 2 2 2 2 2 2 2 2 2 2 3 3 3 4 7 13 29 47 49 51 69 69 83 100 99 99 100
16 12 8 5 4 3 3 4 3 3 3 3 3 3 3 3 3 3 3 3 3 3 3 3 3 3 3 2 2 3 3 3 4 8 17 37 49 52 57 73 95 98 99
15 10 6 4 4 4 4 4 4 4 4 4 4 4 4 4 4 3 3 4 4 5 6 6 6 7 7 6 5 4 3 3 3 3 3 4 12 29 50 53 50 74 88
18 8 5 5 5 5 4 5 4 4 4 4 4 4 4 4 4 4 6 8 9 9 9 8 8 7 8 10 9 9 9 8 7 4 3 4 4 5 15 36 55 58 95
16 6 5 5 5 5 5 5 5 5 5 5 5 5 5 7 9 12 14 13 11 9 9 9 9 8 7 7 7 7 7 7 8 8 8 7 4 5 5 10 29 51 62
11 5 6 6 6 6 6 6 6 6 6 7 7 9 14 18 18 17 14 13 12 11 11 11 13 14 15 14 13 12 11 11 10 8 8 9 9 8 6 6 8 30 46
6 6 6 6 6 6 6 6 7 8 8 10 14 21 24 22 20 18 18 19 21 22 21 22 22 23 23 23 22 21 19 17 16 15 13 11 10 10 9 8 7 10 33
6 6 7 7 7 7 8 8 9 9 10 19 26 24 17 15 17 20 21 21 22 27 32 33 35 34 33 29 27 26 24 22 20 18 17 15 14 12 12 12 9 8 10
7 8 8 7 8 9 8 10 11 14 26 31 25 19 23 29 33 35 34 32 30 37 46 49 46 49 51 51 44 46 45 44 41 36 30 24 20 17 14 13 12 9 11
10 9 8 9 10 10 11 12 14 29 35 28 26 32 37 42 49 51 51 44 38 45 57 56 59 64 63 62 58 59 59 57 53 41 30 26 24 22 15 13 12 11 22
22 13 10 10 11 11 11 12 22 37 34 35 38 44 54 59 62 62 61 55 50 61 70 68 70 73 72 65 62 62 63 63 68 61 47 42 34 29 25 31 91 48 62
12 10 11 11 11 12 13 13 30 37 36 39 51 58 60 60 62 67 72 67 61 70 75 76 76 82 80 72 68 69 64 62 71 70 60 50 41 34 42 43 55 70 93
11 12 12 11 12 13 14 18 39 35 32 45 54 52 52 51 57 67 69 66 64 68 71 75 77 80 82 83 81 76 72 70 72 70 60 50 41 60 81 97 100 100 80
13 13 12 12 13 15 15 26 44 43 43 50 48 51 56 44 50 62 67 69 70 73 80 84 91 88 85 84 81 76 70 66 67 64 54 50 45 100 92 97 98 100 88
14 14 13 13 15 16 16 33 47 46 55 62 64 68 65 47 55 61 62 63 68 73 77 78 80 80 77 76 73 68 63 61 63 60 52 50 44 98 100 97 97 97 91
16 16 14 15 18 18 17 39 50 51 59 69 75 80 74 58 58 60 60 66 73 80 81 80 78 77 72 69 65 61 60 61 61 56 53 52 46 83 98 95 99 95 95
17 16 16 18 20 18 18 45 51 54 66 76 80 80 80 71 64 64 68 72 78 88 92 87 83 78 71 63 60 61 61 58 56 56 58 51 48 96 97 96 98 98 97
16 16 18 20 21 18 21 51 54 57 74 83 84 83 82 82 74 74 75 78 82 88 95 92 84 75 70 65 63 60 53 52 54 59 55 46 46 92 96 98 98 98 97
17 18 20 21 20 18 26 53 55 62 81 86 86 87 87 88 89 87 84 82 84 88 91 88 82 72 64 60 55 52 49 50 55 52 42 36 47 96 97 97 96 97 96
18 20 21 21 19 18 32 56 54 67 83 87 87 86 90 90 92 94 89 83 80 81 83 81 74 64 54 48 48 46 50 51 48 37 30 32 61 97 96 96 97 97 99
20 21 22 20 18 18 39 54 52 70 83 89 88 86 88 89 94 96 92 88 79 73 74 71 64 56 49 46 47 46 47 48 40 47 55 94 96 97 97 96 96 97 96

GFSGL_700_rhum_114.txt.gz
RH
100 99 98 99 99 97 99 100 100 100 94 91 88 83 94 94 99 99 99 99 100 98 98 100 94 100 98 100 100 100 100 100 99 98 98 98 99 98 98 100 98 99 100
99 100 100 100 100 99 100 99 96 98 98 96 90 90 88 98 90 90 89 99 98 99 100 100 100 100 100 100 100 100 100 100 100 98 98 100 100 100 99 100 99 99 100
84 75 83 93 87 83 88 91 92 91 91 89 96 81 55 44 49 51 78 92 84 43 46 73 92 97 97 95 82 94 85 96 99 99 99 100 100 100 100 100 100 100 98
38 33 28 24 21 17 15 14 13 10 9 9 9 9 9 8 8 6 6 8 10 5 4 4 5 7 10 15 17 23 33 42 48 54 71 98 100 100 99 100 100 100 99
32 26 20 16 12 8 6 4 4 3 3 3 3 3 3 3 3 3 3 3 3 3 3 3 3 3 3 3 3 3 3 4 8 15 30 46 53 96 99 99 100 100 99
31 25 20 15 9 5 4 4 3 4 4 3 3 3 3 3 3 3 3 3 3 3 3 3 3 3 3 3 3 3 2 2 2 3 3 6 19 43 50 74 99 99 99
29 24 20 14 8 5 4 4 4 4 4 4 4 4 4 4 4 4 4 4 4 4 4 4 5 6 6 6 7 7 5 4 3 3 2 2 3 3 11 34 47 53 66
27 23 20 16 9 5 4 4 4 4 4 4 4 5 5 5 5 5 4 5 7 9 10 11 11 10 10 10 9 9 9 9 9 7 5 4 3 3 3 3 5 21 41
33 28 24 16 7 5 4 4 5 5 5 5 5 5 5 6 6 6 9 12 12 11 9 8 8 7 6 6 6 6 6 7 7 8 8 8 9 7 5 4 3 3 4
33 31 24 13 6 5 5 6 6 6 6 6 6 6 6 6 8 11 13 12 10 8 8 8 10 11 12 9 8 9 8 7 7 8 11 11 9 8 9 9 8 4 4
40 32 20 7 6 6 7 7 7 7 7 7 7 8 9 16 19 16 12 10 12 14 15 14 14 13 13 14 16 18 20 22 20 16 13 11 12 12 11 10 9 9 8
40 26 8 6 7 9 7 8 8 8 8 8 9 13 22 21 16 18 26 30 33 33 30 29 27 24 22 24 29 31 31 30 29 28 24 21 18 16 16 15 13 11 10
30 9 6 9 10 9 9 8 8 9 10 10 15 25 21 22 32 37 40 40 40 41 43 44 40 35 30 35 42 46 44 40 39 34 31 26 24 22 19 18 17 15 12
7 7 20 34 22 11 10 10 10 11 12 15 28 25 27 33 36 33 34 32 31 36 47 51 47 41 48 57 53 49 50 50 48 41 36 33 33 30 28 25 20 17 15
14 41 36 19 11 11 11 11 11 13 14 28 32 30 32 36 37 39 42 37 28 34 45 51 46 45 52 58 59 61 60 55 49 46 46 42 38 38 29 23 23 20 16
47 24 18 11 14 21 13 12 13 14 20 38 40 36 45 46 45 51 51 37 31 45 46 46 45 51 59 64 64 65 70 69 62 54 49 50 54 52 36 29 28 25 18
30 14 11 13 16 13 12 12 14 15 29 46 44 49 57 56 60 64 50 38 45 50 47 47 50 55 62 70 73 73 72 73 70 62 59 61 66 61 49 40 35 37 80
21 17 16 14 14 14 12 14 16 15 32 40 49 60 65 68 72 67 49 41 46 50 55 61 68 73 77 78 77 76 74 70 64 62 62 64 65 58 48 43 53 82 90
25 17 14 16 15 13 14 17 16 18 40 43 50 65 72 73 75 72 57 56 54 53 58 64 74 76 77 77 76 72 69 65 64 63 60 62 61 54 50 44 89 100 97
41 21 17 16 14 15 17 19 16 25 44 49 60 70 72 73 73 74 59 56 59 60 64 70 79 82 81 79 74 68 65 65 65 63 61 62 61 60 58 50 94 99 98
36 16 16 16 16 17 20 19 16 33 49 53 69 76 76 79 80 78 63 56 58 64 69 76 86 88 85 80 75 70 65 62 62 62 62 60 60 65 56 48 83 96 94
43 18 17 16 16 19 20 17 17 41 52 57 72 79 82 84 82 77 74 64 65 72 78 79 82 86 82 74 68 64 61 60 62 60 57 57 64 57 46 74 96 97 96
52 19 17 17 18 20 20 17 20 47 53 62 77 79 82 82 79 75 74 73 68 68 71 72 72 73 72 63 58 55 53 55 56 56 59 61 54 47 46 87 97 96 97
57 20 18 19 20 20 17 17 27 53 53 68 78 83 84 82 81 80 75 75 74 70 64 61 61 61 60 58 54 55 54 54 58 63 58 44 39 37 83 96 98 97 96
55 19 18 19 20 20 16 17 36 56 54 74 81 85 85 84 83 86 88 91 88 83 74 65 59 54 53 54 54 55 55 55 53 51 42 36 39 49 86 95 98 97 96
34 17 19 20 21 20 15 17 47 57 54 78 83 87 88 85 85 87 89 90 92 94 94 87 65 49 45 45 48 48 47 46 42 47 63 93 96 96 98 100 100 98 96

GFSGL_700_rhum_117.txt.gz
RH
100 100 98 100 99 100 99 99 99 92 98 99 99 100 100 96 82 84 96 97 99 97 97 91 99 100 92 100 100 95 98 99 98 97 100 100 99 89 97 98 91 97 98
78 75 69 73 88 90 92 95 97 98 96 96 98 98 97 97 97 94 83 87 89 94 94 87 96 99 99 100 99 92 100 98 98 99 100 99 99 100 94 99 100 100 100
35 31 27 25 25 22 19 17 15 16 15 14 14 24 31 60 81 70 38 27 27 26 39 66 86 50 33 45 82 97 99 99 100 98 98 100 99 99 100 99 99 100 98
30 27 23 20 16 13 10 6 5 4 4 4 4 3 4 3 4 3 3 3 3 4 4 5 7 20 4 3 3 4 5 7 29 52 26 63 42 49 69 94 100 100 100
30 29 26 22 18 14 9 6 5 4 4 4 4 4 4 3 3 3 3 3 3 3 3 3 3 3 3 3 3 3 3 3 3 3 3 3 5 8 16 24 43 97 99
34 34 32 27 23 19 12 7 5 4 4 4 4 4 4 4 4 4 4 4 4 4 4 4 4 4 4 4 4 5 4 4 4 3 3 2 2 2 3 3 7 27 68
42 39 35 31 25 21 14 8 5 4 4 5 5 5 5 5 5 5 5 5 5 5 5 6 8 9 9 9 9 10 10 10 9 7 6 5 4 4 3 3 3 3 7
47 44 39 35 29 23 14 7 5 5 6 6 6 6 6 6 6 6 6 7 8 10 11 11 10 10 9 8 8 7 7 7 7 7 7 6 6 6 7 6 3 2 2
48 45 42 37 30 22 10 6 6 7 7 7 7 7 7 7 7 8 10 13 13 12 9 8 8 8 10 10 9 8 7 8 8 8 8 6 6 6 5 5 6 6 4
47 44 40 37 29 14 6 7 9 8 8 9 8 8 8 8 9 11 12 10 10 11 17 22 25 25 22 20 20 18 14 12 10 9 11 14 16 15 11 8 6 5 5
46 46 45 35 14 6 10 14 17 15 11 9 8 9 10 12 16 17 16 20 25 22 21 19 18 20 22 25 29 28 25 23 18 16 14 17 17 16 16 15 13 11 8
53 50 36 12 7 24 42 40 24 13 11 10 10 13 14 23 23 25 32 32 31 32 34 29 21 19 23 34 40 40 38 40 44 46 41 35 30 26 24 22 20 18 16
48 32 8 15 46 48 34 17 13 16 13 13 15 13 22 27 29 32 35 37 43 46 46 36 20 19 26 37 45 43 40 46 51 50 51 51 44 37 31 28 24 21 19
24 8 39 52 40 23 17 15 30 21 14 13 13 14 27 28 32 38 40 41 50 54 46 25 23 28 35 38 36 37 43 51 54 54 54 50 45 40 35 33 28 24 22
27 49 44 33 22 15 15 20 15 13 12 13 14 22 28 28 36 42 47 54 57 50 36 24 29 34 33 36 38 42 44 49 54 60 63 59 52 45 38 36 36 38 32
45 42 37 28 24 20 16 16 15 12 14 15 16 32 31 34 46 54 59 61 56 54 35 30 30 33 36 44 49 51 56 60 61 61 63 62 56 49 44 42 49 48 34
43 42 38 29 19 16 19 16 12 14 16 16 24 39 39 46 60 68 70 68 66 46 34 36 39 44 48 57 60 61 57 60 61 59 59 59 60 53 51 51 57 55 45
44 43 41 38 21 20 19 13 13 16 16 15 35 43 47 62 73 75 73 66 53 36 39 42 46 54 64 72 72 70 64 62 62 62 62 60 58 56 53 57 57 48 43
46 45 46 31 18 18 16 14 15 17 15 17 37 45 57 74 78 78 74 62 44 38 45 52 62 69 77 80 76 70 67 63 59 58 59 59 58 55 56 57 50 47 44
46 46 49 37 20 18 15 16 17 17 14 21 43 45 63 74 78 75 64 56 52 49 52 55 64 70 73 71 65 61 58 57 55 55 55 55 57 60 58 52 54 53 56
46 48 52 50 23 17 16 17 18 16 14 27 47 54 71 76 78 75 67 66 61 50 48 50 55 58 60 59 57 53 52 53 54 52 52 54 55 53 56 62 61 54 60
44 51 56 56 24 17 17 18 19 15 15 35 49 64 78 81 82 80 75 71 72 68 63 54 52 56 56 55 50 46 46 49 51 51 52 53 55 61 63 54 51 59 96
44 55 60 57 21 17 17 19 19 14 16 43 49 68 81 83 83 80 81 83 86 83 82 73 58 54 58 56 52 49 47 51 52 54 56 58 60 57 47 43 54 93 98
48 59 63 42 16 17 17 20 18 14 21 48 51 72 82 83 84 84 85 88 93 98 100 99 97 82 58 50 48 50 52 53 53 54 53 48 45 40 39 77 96 96 96
51 62 63 26 16 17 18 20 16 14 29 50 52 74 83 85 88 90 90 91 94 96 99 99 98 98 92 63 46 44 44 43 44 45 43 48 68 89 94 94 97 97 97
52 64 64 30 16 17 18 19 15 14 36 50 52 76 84 85 88 91 92 93 94 96 98 100 100 100 92 64 39 33 36 68 80 66 75 96 97 97 98 97 100 98 96

GFSGL_700_rhum_120.txt.gz
RH
22 22 22 23 24 23 37 30 25 37 50 64 79 83 88 94 100 99 99 98 90 100 97 100 97 74 97 88 98 99 98 97 100 96 100 99 89 98 85 93 99 80 96
23 24 23 21 19 16 14 11 9 8 7 6 7 8 11 47 73 88 92 90 89 84 84 83 85 90 95 93 83 93 100 94 95 98 100 99 100 99 100 100 99 92 79
32 29 26 24 21 18 14 11 8 6 5 4 4 3 3 3 4 4 5 6 8 18 16 14 18 21 33 55 81 84 46 22 22 66 93 99 98 99 92 96 100 97 100
38 35 32 30 26 24 21 16 11 8 6 5 4 4 4 4 4 4 3 3 3 3 3 3 3 3 3 4 4 8 21 10 4 3 3 4 13 58 97 81 100 98 99
40 39 38 35 32 29 25 21 17 12 8 5 4 4 4 4 4 4 4 4 4 4 4 4 4 4 4 4 4 4 3 3 3 3 3 3 3 3 14 54 19 33 46
44 43 40 38 36 33 28 24 18 12 8 5 4 5 6 6 5 5 5 6 6 5 5 5 5 5 5 5 6 6 5 6 6 5 5 4 4 3 3 2 11 6 5
47 44 42 39 37 36 32 26 19 12 7 5 6 8 8 7 7 8 7 7 7 7 7 8 10 10 10 10 9 9 9 8 7 6 6 6 6 6 6 5 4 3 2
45 46 45 45 45 42 36 24 12 7 6 9 10 9 11 16 14 11 9 8 8 8 10 11 11 10 9 9 8 8 8 8 7 6 6 6 6 5 4 4 4 4 4
49 49 51 50 50 45 29 11 6 10 12 12 14 14 12 11 10 9 9 9 13 15 13 13 16 20 23 22 20 16 14 16 17 16 13 10 8 7 6 5 4 4 3
56 59 58 55 50 34 12 7 16 28 32 26 17 14 12 10 11 14 15 17 17 17 23 23 22 24 26 21 18 16 12 13 14 17 18 17 16 14 12 10 8 6 5
68 64 58 54 37 11 9 34 46 38 19 16 22 19 17 20 18 15 18 18 21 24 25 34 38 40 40 32 20 14 16 16 12 15 19 23 23 23 22 22 20 16 12
66 59 56 36 9 18 45 47 29 20 15 31 29 20 18 13 13 18 24 27 30 33 36 38 45 46 35 22 16 16 20 28 32 29 27 28 30 34 37 34 31 28 26
60 59 37 9 34 48 40 26 18 15 19 18 16 15 12 13 17 26 28 31 38 40 46 53 52 42 37 21 19 24 30 30 29 29 34 35 39 40 39 40 39 37 33
60 43 14 45 43 38 28 22 22 18 17 18 13 12 14 14 27 30 32 41 49 55 59 58 55 49 30 26 27 28 30 32 33 36 40 44 45 45 44 48 44 40 35
53 17 44 42 40 36 32 24 18 21 18 12 12 14 13 15 30 31 39 48 56 59 57 52 32 24 24 27 34 40 47 53 55 56 54 53 54 54 53 55 50 44 38
18 43 44 42 40 37 34 22 23 21 13 13 15 15 12 22 29 38 51 57 63 62 50 32 28 30 32 37 41 47 56 62 65 66 65 66 64 61 57 54 54 51 43
24 49 44 44 42 43 30 21 20 16 14 16 16 14 14 29 34 47 57 65 66 50 37 28 32 36 42 49 56 60 60 60 60 61 60 60 62 62 61 55 54 50 46
44 53 46 45 45 45 34 21 20 15 15 17 17 14 20 34 41 58 68 67 60 48 37 35 36 39 46 50 54 56 56 56 58 59 59 57 57 56 55 54 53 52 54
52 57 48 46 47 48 44 24 18 15 16 18 15 14 27 37 50 68 73 68 53 42 38 39 44 47 50 51 51 50 51 52 52 52 51 51 53 53 52 53 55 58 55
49 57 49 46 47 51 52 26 17 16 17 18 14 15 34 40 59 73 74 69 54 43 39 41 45 42 44 46 46 45 44 48 50 51 52 54 56 57 56 57 55 52 52
40 52 48 44 48 55 57 25 17 16 18 18 14 21 39 42 61 73 73 70 67 65 65 65 61 56 51 45 44 44 44 46 49 47 47 49 48 47 51 51 53 57 54
26 42 43 42 49 60 57 21 16 17 18 16 14 32 43 51 70 77 76 76 81 83 84 85 86 90 85 65 49 42 43 48 51 51 52 54 57 60 56 50 48 44 45
18 32 39 42 52 62 41 18 17 18 19 15 15 42 46 60 76 78 78 81 86 86 87 89 91 91 94 94 88 68 49 48 49 50 52 54 54 51 45 39 39 42 66
23 26 36 42 55 63 37 18 17 18 19 14 18 46 48 66 80 80 81 85 88 88 92 94 91 90 90 90 85 66 52 52 58 52 47 47 50 64 78 75 75 93 97
46 22 33 42 57 66 40 19 18 18 18 14 22 48 49 70 81 81 84 89 91 91 93 92 95 100 96 74 60 67 85 96 95 95 94 64 91 100 98 92 94 99 100
57 30 30 42 57 66 43 20 19 19 18 15 27 50 49 72 82 83 86 91 90 90 91 95 96 96 92 73 81 91 96 96 96 96 96 97 96 100 98 97 97 96 100

GFSGL_700_rhum_123.txt.gz
RH
18 18 17 16 14 14 14 13 11 9 7 5 5 4 4 6 12 48 86 91 88 87 87 97 100 98 100 100 100 82 87 93 87 91 90 88 87 98 96 97 99 88 84
24 22 22 22 21 20 19 18 17 15 11 8 6 5 4 4 4 4 4 5 9 16 47 75 67 53 59 65 75 99 94 98 90 86 83 99 98 87 79 100 98 99 99
35 28 27 28 26 25 23 22 21 20 18 14 9 6 4 4 4 4 3 4 4 4 4 4 4 4 4 5 8 9 19 34 51 75 77 64 31 19 31 73 84 83 95
46 40 34 31 29 29 28 27 25 22 19 16 11 7 5 4 4 4 4 4 4 4 4 4 4 4 4 4 4 4 3 3 3 3 5 22 24 9 6 8 10 25 66
50 49 42 38 36 34 32 30 28 24 21 17 12 8 6 6 7 8 7 6 6 6 6 6 6 6 5 5 5 5 5 4 4 4 4 4 3 3 3 3 6 7 4
48 47 43 41 41 39 37 34 31 27 22 15 8 7 9 10 9 9 12 15 14 10 9 8 8 9 9 9 9 9 9 8 7 7 8 6 6 7 6 5 4 4 3
34 38 39 40 42 42 41 39 36 26 14 7 9 14 17 21 25 25 22 17 13 11 10 9 9 10 10 10 9 9 8 8 7 6 6 6 6 6 6 5 5 5 4
42 45 46 46 48 49 46 43 32 13 7 15 31 42 40 33 27 23 23 19 17 18 18 17 15 13 13 14 15 15 14 14 16 15 13 11 10 9 8 7 6 4 4
50 55 55 55 57 51 49 37 16 8 28 47 44 30 25 28 31 32 32 30 28 24 19 18 20 23 23 22 24 26 26 23 17 13 12 11 11 11 12 10 10 8 6
58 61 62 64 58 55 43 18 9 39 49 40 30 20 33 30 24 24 16 11 11 15 19 26 28 29 39 41 43 41 36 27 18 15 13 12 12 12 13 13 12 11 10
59 66 65 62 57 49 22 12 46 48 36 26 20 21 21 19 18 13 12 12 16 21 26 28 34 35 36 44 46 40 37 32 22 13 11 11 14 19 18 17 18 16 13
63 66 67 61 56 27 19 45 42 36 29 27 24 21 21 16 12 13 13 17 26 26 29 31 36 45 51 51 48 44 31 20 16 16 16 17 19 18 18 20 23 28 30
60 66 65 62 42 19 43 39 38 34 31 23 22 25 13 12 14 14 15 28 30 33 41 51 56 57 52 37 20 19 19 20 21 22 24 26 28 28 28 28 28 32 32
62 70 67 63 19 42 40 40 38 35 26 26 28 17 12 14 15 14 27 32 37 50 56 59 57 41 21 19 21 24 26 28 30 32 35 38 40 39 38 41 38 35 32
70 67 66 43 29 43 40 41 40 35 26 24 23 14 14 15 14 16 30 32 44 51 57 55 32 21 22 25 28 31 34 38 42 49 53 52 49 47 45 46 46 48 46
82 78 66 22 42 44 42 42 41 36 26 24 21 13 14 16 13 21 32 38 50 59 58 44 24 22 25 26 28 29 30 34 38 41 46 48 49 50 48 46 48 48 48
90 87 64 21 48 46 44 44 44 40 30 23 17 14 16 16 13 26 35 43 60 64 60 37 28 28 30 32 32 33 32 35 35 37 39 43 45 47 48 47 48 48 46
86 80 35 21 53 48 45 46 47 49 33 20 16 16 17 15 14 33 38 49 67 68 60 39 32 33 34 35 36 36 38 41 42 44 45 47 47 46 44 46 48 49 47
94 62 16 21 54 51 46 47 50 55 37 18 16 17 17 14 21 40 47 63 68 69 67 57 60 61 56 48 43 41 42 45 47 48 49 50 53 52 51 53 53 55 54
87 45 10 20 52 51 46 46 54 60 34 16 16 17 17 14 34 45 61 70 70 74 72 75 80 84 85 86 82 61 48 50 54 58 58 57 58 54 50 49 51 49 50
95 62 23 19 44 48 43 47 58 60 24 16 17 17 15 16 39 46 64 70 73 76 76 77 82 85 86 85 86 85 76 62 56 55 57 61 62 60 60 56 54 53 50
91 94 31 38 35 39 39 47 62 53 18 16 17 18 14 26 42 52 70 76 79 78 79 78 81 84 86 87 86 81 78 80 83 74 64 60 58 57 55 49 48 45 45
84 96 75 47 51 54 38 47 64 52 20 17 18 17 14 36 44 59 75 79 81 83 83 83 85 87 93 87 78 68 69 88 90 93 96 86 63 53 49 59 78 68 66
72 61 95 47 74 65 42 48 66 56 23 18 18 16 15 41 46 64 77 81 84 85 85 84 89 90 92 98 99 90 94 96 97 97 96 96 96 78 90 99 99 100 99
94 83 97 93 94 71 50 51 67 58 26 18 18 15 16 45 48 66 78 83 84 84 87 88 88 88 94 100 100 98 97 97 96 96 97 96 98 99 99 99 100 99 98
92 96 96 95 95 77 55 61 66 61 28 19 18 15 18 47 49 67 79 84 83 89 90 86 86 90 95 98 100 98 97 97 97 96 95 95 96 99 100 100 100 99 100

GFSGL_700_rhum_126.txt.gz
RH
31 26 20 18 18 18 19 20 20 20 19 19 18 17 13 8 5 4 3 3 4 9 22 38 70 90 93 92 88 88 94 99 100 93 95 94 98 87 83 96 100 76 93
36 34 31 25 22 21 22 22 22 21 21 19 18 16 15 12 7 4 4 4 4 4 3 3 4 4 10 29 28 20 30 54 72 99 100 97 86 87 90 82 90 97 97
43 42 38 34 30 28 27 26 25 25 24 22 20 17 14 10 7 6 5 6 6 6 5 5 4 4 4 4 4 4 4 4 4 4 6 10 20 26 53 69 69 58 42
42 44 44 39 36 34 34 32 31 30 28 26 22 17 11 8 8 9 10 10 10 11 11 11 9 8 7 7 6 6 5 5 5 4 4 4 4 3 3 5 12 19 11
41 42 47 38 39 39 36 34 34 34 32 30 21 13 9 11 16 18 21 24 26 28 29 28 23 15 12 12 10 9 10 10 10 11 10 8 7 6 5 5 4 4 4
38 43 46 39 40 40 40 41 42 40 37 27 14 9 19 36 42 42 36 30 26 24 22 21 23 24 22 17 13 12 10 10 9 9 8 8 8 7 7 7 7 6 6
42 48 43 43 46 45 45 48 48 46 36 15 9 29 45 43 32 31 32 32 33 34 32 31 30 28 27 26 22 18 17 16 15 13 11 11 10 10 9 8 7 6 6
46 45 44 48 48 52 52 53 49 44 22 9 33 46 41 34 27 34 31 28 29 20 13 12 12 14 16 18 18 18 20 26 29 29 28 24 20 15 12 10 9 8 7
37 43 51 51 53 58 60 55 52 34 10 38 47 41 32 25 25 26 25 25 15 11 12 14 17 21 25 28 29 32 34 37 39 36 33 29 24 19 14 14 13 12 12
45 55 57 56 62 62 58 57 48 13 36 45 38 33 30 28 24 26 23 11 11 12 14 21 25 28 31 33 33 34 38 46 45 42 41 38 32 24 16 13 11 11 10
60 62 60 66 69 68 60 54 19 31 42 38 34 32 28 25 28 17 11 12 12 11 20 26 30 34 41 46 48 47 46 38 26 16 14 14 15 16 16 16 15 15 14
50 55 65 74 74 72 62 47 23 41 39 37 35 28 26 29 19 12 12 13 12 17 24 28 39 46 50 54 52 36 19 16 16 16 16 18 20 22 23 24 24 25 24
52 58 68 74 76 74 70 27 38 40 40 39 36 29 26 24 15 13 14 13 14 24 26 37 46 52 55 43 24 17 18 19 21 22 24 24 27 28 32 35 35 36 36
60 66 73 75 79 76 75 25 42 41 41 40 36 29 25 22 14 14 15 12 20 28 33 45 58 58 49 25 20 21 21 20 20 20 19 20 22 27 30 34 32 32 31
65 69 79 80 89 86 64 28 43 42 42 42 39 35 29 20 15 15 15 12 22 27 31 51 60 53 30 24 26 28 29 28 27 25 25 25 24 26 29 34 35 36 34
68 73 82 87 89 88 45 30 45 44 44 43 43 43 28 18 15 15 14 13 28 32 41 59 59 48 32 22 24 28 31 31 32 32 31 31 31 31 30 31 34 35 35
78 85 90 94 94 94 31 35 56 47 45 44 47 49 26 17 16 16 13 16 33 37 59 65 60 56 55 64 63 44 31 33 33 34 34 36 37 37 37 38 38 36 36
85 88 90 94 96 73 20 41 66 49 46 46 49 51 23 17 17 16 13 25 40 54 64 64 66 66 68 74 78 78 76 59 44 40 39 40 42 43 41 42 44 44 45
93 96 97 94 95 38 15 49 68 54 53 47 59 47 19 17 17 15 14 36 45 66 69 70 70 70 76 80 81 78 77 81 80 68 50 42 45 46 46 50 48 46 44
96 96 96 94 93 68 41 68 67 55 58 57 72 40 17 16 18 14 24 42 58 73 73 72 71 75 81 80 73 73 72 78 81 82 81 70 56 51 51 52 53 50 50
95 95 91 78 94 92 58 61 61 63 64 66 80 36 18 16 16 14 38 47 68 75 74 72 75 79 83 74 70 67 64 67 84 91 94 89 91 80 62 54 50 46 41
81 90 85 79 73 93 67 55 60 72 73 78 86 39 18 17 15 16 41 50 74 76 74 74 75 80 79 76 76 72 77 86 95 96 95 96 97 98 93 67 50 50 63
63 70 85 96 95 92 91 76 73 91 78 91 91 45 19 18 15 18 43 56 79 80 78 79 77 82 83 88 91 90 94 96 97 97 96 97 98 98 96 94 77 93 96
97 100 99 96 96 66 82 92 83 91 90 94 92 51 20 18 15 23 46 62 82 82 80 83 80 85 90 91 93 96 97 96 94 95 96 97 99 99 98 94 97 97 96
95 98 98 93 95 95 95 96 96 91 89 94 92 51 21 18 15 30 47 62 82 82 83 87 86 90 93 94 96 98 98 98 96 96 96 96 98 98 98 98 98 96 96
95 96 96 98 98 96 96 95 96 91 94 94 90 50 21 18 15 33 49 64 83 85 84 87 87 90 92 96 99 100 97 98 97 96 96 97 97 98 98 96 96 94 98

GFSGL_700_rhum_132.txt.gz
RH
25 26 26 30 31 32 31 30 31 28 25 23 22 21 20 20 20 18 16 14 12 10 10 10 9 7 6 4 4 4 4 8 29 63 78 82 81 80 85 85 88 95 98
31 30 31 33 37 40 39 38 37 35 30 28 26 25 24 25 24 19 14 12 14 16 18 22 22 21 21 18 14 10 7 6 5 4 4 4 9 24 46 50 53 80 88
20 25 25 26 35 40 42 43 42 38 35 34 33 33 34 31 23 13 13 20 26 28 29 29 30 32 33 34 34 32 30 24 18 15 11 8 7 6 5 4 4 4 4
20 26 27 27 39 48 48 50 47 40 39 40 38 38 39 32 16 12 27 34 33 32 32 32 31 30 29 31 33 33 32 31 31 30 26 20 16 13 13 12 10 8 7
27 31 25 29 34 42 52 55 56 49 46 47 45 45 41 30 12 24 40 38 35 32 33 29 27 28 27 23 22 21 22 27 32 32 31 31 30 27 23 19 17 13 11
33 27 24 26 28 37 52 57 56 50 50 52 53 52 46 23 14 40 42 34 31 30 29 28 29 23 15 14 13 13 14 14 12 13 14 15 16 17 19 20 20 20 19
37 28 25 27 31 41 58 63 66 57 56 58 60 58 51 14 36 39 35 32 32 29 30 29 15 13 12 9 9 10 13 16 17 19 21 23 24 26 26 23 24 24 24
36 41 33 27 27 34 52 71 77 64 63 65 66 60 46 20 40 35 34 32 29 32 29 16 12 11 9 8 11 16 21 25 26 26 28 34 37 35 31 28 24 22 23
37 41 42 34 31 29 38 69 91 71 71 72 72 65 34 34 37 35 34 30 32 32 23 13 11 10 9 15 18 21 26 31 32 36 38 32 16 11 11 10 9 8 8
36 38 42 39 36 31 38 70 100 81 78 75 78 70 32 37 37 36 32 30 30 31 20 13 12 10 16 21 22 29 29 37 44 37 17 12 11 11 12 13 13 12 12
36 39 43 45 40 36 49 73 100 98 91 89 84 78 34 37 36 37 38 37 32 30 19 13 12 12 21 24 29 30 37 42 32 20 14 14 14 14 15 15 15 15 15
36 36 36 33 37 42 53 85 100 100 98 98 96 83 32 37 38 45 74 77 33 27 18 13 11 14 23 27 31 41 43 37 31 23 19 16 17 18 17 17 17 18 18
28 29 31 34 39 47 59 87 100 100 99 99 94 84 33 49 48 81 93 67 35 24 16 13 12 14 24 29 39 48 45 39 35 41 34 21 18 19 20 21 22 23 23
29 31 35 38 43 52 63 92 100 99 97 98 96 72 58 50 89 90 94 91 43 21 15 14 12 17 28 34 51 50 48 40 43 40 40 39 24 21 21 22 23 25 26
52 50 39 39 43 55 72 97 98 98 97 97 96 85 81 78 94 94 94 94 50 18 15 14 14 26 35 53 57 53 48 45 45 38 34 32 33 36 36 30 27 27 27
71 67 60 50 53 64 82 99 100 99 96 97 96 95 67 92 95 95 94 95 42 17 16 13 17 34 47 62 61 58 53 51 44 38 35 31 32 37 40 48 53 43 36
69 75 82 74 83 92 96 98 98 96 97 96 95 86 68 96 95 94 95 95 38 18 16 13 27 40 59 67 63 60 58 57 48 39 35 38 50 70 75 80 78 64 52
73 81 78 90 93 95 96 95 96 97 96 96 95 72 56 95 95 95 96 95 30 18 15 16 36 51 68 68 64 61 62 59 48 46 50 60 72 83 84 86 87 88 87
70 72 78 84 92 96 96 97 97 97 95 96 95 95 94 94 95 96 95 94 31 18 15 20 39 62 72 71 68 68 67 60 58 64 75 86 94 91 89 91 91 94 90
44 82 76 76 88 94 96 96 98 96 96 96 95 94 91 92 95 95 95 92 33 19 15 26 44 68 75 74 72 71 68 66 73 84 94 96 97 95 92 93 94 92 92
41 61 86 78 84 93 90 92 92 95 91 95 95 93 74 82 94 96 96 92 34 20 15 30 49 74 78 77 77 77 74 77 86 93 96 97 96 95 96 97 96 98 98
45 47 69 86 88 92 91 93 94 91 91 97 98 91 88 81 91 96 96 93 34 20 16 33 53 77 78 80 82 81 81 87 91 94 93 93 95 96 98 98 99 100 99
62 50 57 74 90 97 94 94 85 86 89 95 97 94 93 92 95 94 96 94 33 19 16 36 57 79 80 83 85 85 88 91 92 94 91 91 95 97 98 99 98 97 98
69 57 51 63 77 93 99 96 95 91 93 97 96 95 95 95 96 95 96 90 30 19 17 39 59 79 81 85 86 88 92 95 94 94 97 95 93 94 95 95 96 97 97
72 68 63 63 74 98 96 96 96 96 94 95 98 95 96 96 96 95 96 86 29 18 18 41 62 80 82 86 86 88 92 95 97 99 99 99 99 98 98 98 97 97 97
83 76 72 70 78 84 93 100 97 95 97 96 97 96 96 95 95 96 96 85 28 18 21 45 64 79 83 87 87 88 92 95 96 97 100 100 98 97 99 99 97 96 97

GFSGL_700_rhum_135.txt.gz
RH
36 25 26 26 27 28 29 32 33 35 35 32 29 26 25 24 23 23 24 22 17 14 14 16 20 23 24 23 22 21 18 14 10 6 5 4 4 4 11 48 71 81 88
26 24 20 16 18 28 28 31 34 39 38 36 33 30 31 31 29 30 28 21 14 15 22 27 28 29 29 31 30 30 30 31 30 30 26 18 13 11 9 6 4 6 11
19 23 21 21 24 31 29 34 40 50 51 46 44 36 38 37 36 36 30 17 13 22 28 30 30 32 31 29 28 28 28 30 30 29 29 30 31 28 24 22 20 13 8
25 26 28 33 34 28 27 29 36 54 59 56 55 44 44 44 44 42 29 12 21 30 32 32 31 31 27 27 27 25 22 20 20 20 22 24 28 30 32 31 27 24 22
33 32 31 34 33 27 27 30 36 51 62 61 65 53 53 53 52 46 26 13 37 37 32 32 32 29 28 28 20 16 15 14 13 13 14 15 15 16 17 20 23 25 26
36 36 33 35 38 30 27 30 36 53 65 69 70 57 57 60 60 53 19 27 38 34 33 33 30 30 28 18 16 12 8 8 9 10 12 13 16 19 19 19 18 17 16
38 42 40 38 38 43 40 29 29 40 66 76 82 68 67 68 70 62 20 39 36 33 32 30 32 28 21 14 11 8 8 11 15 17 18 20 21 24 26 28 26 23 19
40 42 40 38 39 44 48 44 36 41 75 100 100 86 78 78 80 73 26 38 34 33 30 30 31 25 16 12 10 8 13 18 22 26 26 28 31 30 24 13 10 8 7
46 45 42 39 38 43 46 48 45 41 53 94 99 97 91 87 87 79 30 36 35 32 30 36 32 24 15 12 10 13 18 23 28 28 34 37 29 18 14 13 11 10 10
38 37 36 39 42 44 48 50 51 45 51 99 97 98 94 93 90 82 33 36 36 39 64 72 32 22 14 12 11 18 21 27 28 38 39 30 26 21 17 15 13 12 11
26 26 26 26 26 28 31 33 36 44 64 92 96 97 95 94 92 80 33 35 36 61 90 76 46 24 14 12 12 22 25 27 34 42 37 31 25 22 17 15 14 14 14
30 24 26 26 27 29 31 34 39 47 50 92 90 97 87 93 96 76 32 34 56 84 94 89 61 20 14 12 14 25 29 32 44 43 36 32 22 19 18 15 14 15 17
48 52 53 50 46 40 36 37 43 57 64 88 99 96 91 95 95 75 33 44 80 92 95 89 46 18 15 12 17 27 30 44 48 46 40 32 22 17 18 19 18 17 17
38 49 53 59 62 60 54 41 45 62 77 98 95 95 96 95 97 77 62 62 92 94 94 92 50 17 15 12 21 30 39 52 52 48 40 34 27 22 18 19 19 23 23
18 26 34 62 69 69 67 58 56 64 88 97 98 97 97 97 96 96 92 95 95 95 93 80 25 17 14 15 30 37 52 57 56 49 45 38 25 21 26 40 60 64 63
6 15 30 39 60 72 75 79 79 82 90 97 94 97 96 93 96 94 93 95 96 94 91 68 20 18 14 24 35 48 61 60 57 52 51 39 29 29 44 59 72 79 76
8 5 13 26 64 69 73 83 89 96 97 97 97 95 91 95 96 93 92 96 95 94 92 53 20 16 16 33 43 63 66 62 57 58 55 45 43 50 59 72 86 87 86
7 6 11 30 61 80 71 80 89 94 99 98 96 96 94 96 94 90 90 95 96 95 91 52 20 16 20 37 56 68 69 65 63 62 58 58 67 73 83 89 92 91 90
12 19 31 43 46 75 79 78 88 93 96 94 91 93 97 97 94 94 96 94 93 95 94 61 21 16 25 42 67 71 71 69 68 67 68 77 85 88 93 94 92 95 96
12 35 48 47 46 51 81 90 88 95 95 92 91 95 97 96 95 95 93 90 92 94 95 71 22 16 30 49 72 75 75 75 74 75 83 90 91 95 98 98 98 98 96
20 37 59 67 61 52 75 100 94 91 91 92 93 96 96 95 95 95 76 84 88 94 95 73 21 16 32 54 74 77 78 80 81 87 89 90 95 98 98 100 99 98 96
44 53 63 71 83 70 69 100 99 96 94 86 92 100 99 92 97 94 89 75 89 95 96 71 20 17 37 60 79 81 84 86 89 92 92 94 97 97 98 98 98 96 96
77 71 70 78 84 90 75 85 100 99 97 96 91 90 94 94 97 97 96 95 94 95 96 62 18 20 41 65 80 83 85 87 90 93 91 94 95 95 97 98 97 95 97
98 98 99 96 91 94 84 81 94 100 100 97 93 89 88 93 97 98 97 97 96 96 95 55 18 24 43 69 81 84 86 87 92 93 95 95 94 96 95 96 98 98 98
96 96 96 97 97 95 87 78 84 92 95 97 97 93 89 91 96 96 97 96 97 96 96 51 18 27 47 73 82 86 87 89 92 94 95 95 95 99 100 99 98 98 98
87 95 96 96 97 96 90 85 87 93 100 98 97 95 89 94 96 97 96 96 96 96 95 39 18 31 49 75 84 87 87 88 93 97 98 98 98 100 96 95 92 95 98

GFSGL_700_rhum_138.txt.gz
RH
16 21 26 26 22 18 19 21 28 27 27 30 35 38 37 33 28 28 29 28 29 28 20 14 16 21 24 26 26 27 28 27 26 27 26 24 25 25 25 22 18 12 6
16 17 22 24 24 23 28 35 36 32 32 38 47 52 50 45 39 34 35 35 36 30 18 15 22 28 29 29 30 28 27 25 24 24 25 25 24 25 25 26 28 27 27
21 23 27 30 32 33 33 35 36 31 31 35 42 56 58 56 52 43 42 43 43 32 14 22 32 31 31 31 30 27 25 26 23 20 19 19 20 20 22 24 27 28 27
28 31 33 35 36 33 29 32 32 27 27 34 42 58 70 69 68 55 54 54 51 37 14 30 37 32 32 31 29 29 27 20 18 17 14 12 11 11 12 14 16 17 19
38 39 41 39 37 34 31 31 36 38 31 32 46 67 81 77 78 62 60 60 57 39 16 37 35 32 32 30 30 28 20 17 13 9 7 7 8 9 9 10 12 13 14
43 44 44 41 40 38 38 36 35 41 47 37 40 62 84 96 96 79 70 68 66 47 23 39 33 32 30 31 29 23 17 14 9 8 9 11 14 16 18 18 19 20 19
43 45 46 46 47 47 45 43 44 46 50 50 41 53 99 100 100 94 81 75 72 57 29 36 34 30 30 32 29 21 16 11 9 12 15 21 23 23 24 25 23 18 14
36 38 39 38 37 37 38 42 48 51 52 54 52 48 66 87 96 97 89 84 80 64 32 35 33 30 45 60 33 21 14 10 12 18 20 26 26 31 30 24 23 21 17
25 25 25 25 25 26 26 27 28 28 34 44 51 54 51 95 74 98 91 82 83 72 34 35 32 48 73 64 32 20 15 10 16 22 28 29 38 36 30 26 18 9 8
35 36 40 42 37 27 25 25 27 28 31 35 39 50 58 66 91 99 95 88 88 79 34 33 39 64 84 78 53 28 14 11 18 25 29 38 41 36 29 16 9 10 10
31 26 22 22 37 52 53 50 48 44 36 38 43 50 55 65 99 98 96 85 89 84 33 33 45 74 88 91 61 28 15 11 20 28 32 46 42 34 23 11 10 11 12
41 42 43 42 36 23 27 41 52 58 56 41 42 52 58 89 99 97 96 94 91 92 38 34 62 82 95 86 48 21 14 12 22 28 42 49 44 31 17 11 11 11 12
15 13 12 17 30 26 19 28 58 62 64 53 45 56 66 99 96 97 94 90 95 96 70 57 80 95 96 95 59 17 13 15 26 32 50 52 45 30 20 14 14 17 27
11 8 6 10 11 7 8 16 32 58 70 68 59 60 74 99 98 92 94 94 96 96 93 91 95 95 94 78 30 16 13 24 33 47 55 55 44 32 23 14 16 33 43
3 3 3 3 4 8 6 11 20 54 70 74 78 82 93 99 97 96 96 95 96 97 96 97 96 96 93 61 21 14 18 33 44 58 58 54 46 37 28 19 23 39 45
3 3 3 4 4 7 11 13 30 68 69 81 88 99 100 99 97 97 93 97 98 97 95 94 96 95 91 48 17 15 29 39 57 62 60 54 50 39 27 29 38 49 61
6 6 6 6 8 13 33 37 48 87 80 81 93 97 98 99 97 97 96 98 96 88 91 90 95 94 92 36 16 18 36 53 66 65 62 60 51 42 38 48 57 68 78
12 10 10 9 11 13 31 61 69 88 98 90 97 96 97 97 97 97 96 99 92 88 94 94 94 95 84 26 16 24 42 68 70 69 67 62 55 53 61 69 79 83 87
15 15 19 22 21 19 35 59 62 70 98 98 99 98 96 96 96 97 96 95 96 92 98 95 95 94 82 27 16 28 50 72 73 74 72 68 70 73 81 87 86 87 88
25 28 38 44 41 32 50 70 73 62 79 98 96 98 97 96 95 97 96 95 96 90 82 91 93 92 86 27 17 32 57 74 76 78 77 78 84 88 91 90 91 92 93
64 85 89 87 82 72 68 68 90 93 67 95 93 96 97 96 97 96 96 96 97 82 77 88 96 95 92 28 18 35 63 78 81 82 82 87 92 92 94 94 96 95 94
91 95 97 95 97 99 89 80 80 97 87 77 96 94 96 93 95 96 96 96 96 94 80 86 97 98 89 24 19 40 69 80 84 82 86 92 93 93 91 91 94 95 95
96 95 96 96 96 96 96 99 99 99 97 75 93 98 97 95 95 96 96 97 97 97 96 96 97 97 86 21 22 44 75 84 85 85 88 92 91 91 90 91 94 94 89
84 87 94 93 99 97 96 96 97 98 97 85 77 94 100 96 96 96 95 97 97 98 96 96 96 96 79 20 27 52 80 85 86 86 89 89 88 88 89 91 90 88 94
96 93 94 90 81 83 96 96 96 98 99 90 82 88 97 96 95 96 95 96 96 97 97 96 97 95 74 20 34 60 84 87 88 87 89 89 88 88 87 91 94 94 94
91 95 94 96 98 98 96 96 96 96 98 93 88 88 96 96 96 96 95 95 96 96 96 96 96 95 49 21 42 70 87 89 91 91 92 90 88 89 90 92 92 90 89